Location: Chervonnoye
(48.6000°N, 34.4000°E)
Time: 21:16:55
(UTC+00:00)

RS-44 - Pass Details

Date: 04 December 2021
Orbit: 1175 x 1510 km, 82.5° (Epoch: 19 January)

Event Time Altitude Azimuth Distance (km) Brightness Sun altitude
Rises 01:38:33 0° 357° (N) 4,135 ? -35.2°
Reaches altitude 10° 01:42:59 10° 22° (NNE) 3,218 ? -34.4°
Maximum altitude 01:46:43 14° 52° (NE) 2,960 ? -33.8°
Drops below altitude 10° 01:50:31 10° 82° (E) 3,321 ? -33.2°
Sets 01:55:12 0° 106° (ESE) 4,363 ? -32.4°
